FW6131 Weather Reports


time (UTC)temp
F
wind
direction
speed
knots
gust
knots
rain 1hr
in
rain 24hr
in
rain mn
in
humidity
%
barometer
mb
20260507140036 62 8 6.1 11.3 0.00 0.00 0.00 43 1017.4
20260507134539 62 12 5.2 13.0 0.00 0.00 0.00 44 1017.3
20260507133107 63 29 3.5 13.0 0.00 0.00 0.00 45 1017.2
20260507131543 62 33 4.3 13.9 0.00 0.00 0.00 46 1017.2
20260507130045 62 62 1.7 10.4 0.00 0.00 0.00 49 1017.2
20260507124536 62 74 4.3 10.4 0.00 0.00 0.00 47 1017.1
20260507123040 63 32 3.5 13.9 0.00 0.00 0.00 48 1017.0
20260507121542 62 22 4.3 12.2 0.00 0.00 0.00 48 1017.0
20260507120039 61 44 0.9 9.6 0.00 0.00 0.00 51 1016.8
20260507114549 62 52 2.6 10.4 0.00 0.00 0.00 48 1016.8
20260507113038 61 66 5.2 12.2 0.00 0.00 0.00 50 1016.9
20260507111537 63 52 2.6 9.6 0.00 0.00 0.00 49 1016.8
20260507110042 61 23 2.6 12.2 0.00 0.00 0.00 49 1016.8
20260507104538 60 23 1.7 10.4 0.00 0.00 0.00 51 1016.8
20260507103044 61 35 3.5 13.0 0.00 0.00 0.00 52 1016.7
20260507101540 60 350 1.7 9.6 0.00 0.00 0.00 52 1016.6
20260507100039 59 360 4.3 11.3 0.00 0.00 0.00 53 1016.5
20260507094547 58 61 2.6 7.0 0.00 0.00 0.00 55 1016.4
20260507093037 57 74 4.3 9.6 0.00 0.00 0.00 58 1016.2
20260507091538 56 31 5.2 13.0 0.00 0.00 0.00 58 1016.2
20260507090037 56 11 2.6 11.3 0.00 0.00 0.00 60 1016.2
20260507084540 55 30 2.6 8.7 0.00 0.00 0.00 61 1016.2
20260507083038 54 69 1.7 8.7 0.00 0.00 0.00 67 1016.0
20260507081539 52 10 1.7 8.7 0.00 0.00 0.00 71 1016.1
20260507080041 52 55 0.9 7.0 0.00 0.00 0.00 70 1016.0
20260507074542 51 37 5.2 11.3 0.00 0.00 0.00 72 1016.0
20260507073043 50 20 4.3 10.4 0.00 0.00 0.00 75 1015.7
20260507071539 49 21 0.9 9.6 0.00 0.00 0.00 79 1015.8
20260507070045 49 17 4.3 9.6 0.00 0.00 0.00 79 1015.7
20260507064545 48 31 2.6 8.7 0.00 0.00 0.00 81 1015.6
20260507063037 48 324 0.9 5.2 0.00 0.00 0.00 82 1015.5
20260507061538 47 355 2.6 7.8 0.00 0.00 0.00 82 1015.4
20260507060039 47 355 3.5 9.6 0.00 0.00 0.00 83 1015.2
20260507054538 46 55 2.6 8.7 0.00 0.00 0.00 84 1015.0
20260507053037 45 38 2.6 7.0 0.00 0.00 0.00 85 1015.0
20260507051537 45 355 1.7 5.2 0.00 0.00 0.00 86 1015.0
20260507050041 44 355 1.7 4.3 0.00 0.00 0.00 87 1014.7
20260507044555 44 355 1.7 5.2 0.00 0.00 0.00 87 1014.5
20260507043041 44 355 1.7 7.0 0.00 0.00 0.00 87 1014.5
20260507041545 44 355 1.7 7.0 0.00 0.00 0.00 87 1014.3
20260507040043 44 355 1.7 4.3 0.00 0.00 0.00 87 1014.2
20260507034542 45 355 0.9 3.5 0.00 0.00 0.00 86 1014.0
20260507033050 46 355 1.7 5.2 0.00 0.00 0.00 85 1013.9
20260507031553 46 355 2.6 5.2 0.00 0.00 0.00 85 1013.7
20260507030100 46 355 1.7 5.2 0.00 0.00 0.00 84 1013.8
20260507024559 47 355 1.7 7.8 0.00 0.00 0.00 84 1013.6
20260507023037 47 355 1.7 7.8 0.00 0.00 0.00 84 1013.5
20260507021551 47 355 1.7 7.0 0.00 0.00 0.00 84 1013.2
20260507020053 47 355 1.7 8.7 0.00 0.00 0.00 84 1013.2
20260507014549 47 355 2.6 9.6 0.00 0.00 0.00 83 1013.1
20260507013041 47 355 3.5 8.7 0.00 0.00 0.00 83 1013.0
20260507011544 47 355 2.6 7.8 0.00 0.00 0.00 84 1013.0
20260507010043 47 355 2.6 7.0 0.00 0.00 0.00 84 1012.8
20260507004536 48 355 1.7 9.6 0.00 0.00 0.00 84 1012.8
20260507003034 48 355 2.6 5.2 0.00 0.00 0.00 84 1012.7
20260507001539 48 355 2.6 11.3 0.00 0.00 0.00 84 1012.7
20260507000039 48 355 2.6 7.8 0.00 0.00 0.00 84 1012.6
20260506234551 48 355 2.6 8.7 0.00 0.00 0.00 84 1012.8
20260506233046 49 355 2.6 8.7 0.00 0.00 0.00 83 1012.6
20260506231536 49 355 3.5 9.6 0.00 0.00 0.00 84 1012.5
20260506230035 49 355 1.7 7.0 0.00 0.00 0.00 84 1012.5
20260506224542 49 355 2.6 7.0 0.00 0.00 0.00 84 1012.4
20260506223038 49 355 1.7 7.0 0.00 0.00 0.00 84 1012.3
20260506221539 49 355 2.6 7.0 0.00 0.00 0.00 84 1012.3
20260506220037 49 355 3.5 7.8 0.00 0.00 0.00 83 1012.3
20260506214537 49 355 1.7 7.0 0.00 0.00 0.00 82 1012.1
20260506213039 49 355 1.7 5.2 0.00 0.00 0.00 82 1012.1
20260506211539 50 355 1.7 7.0 0.00 0.00 0.00 81 1011.9
20260506210038 50 355 1.7 7.8 0.00 0.00 0.00 80 1012.0
20260506204540 50 355 2.6 8.7 0.00 0.00 0.00 79 1011.9
20260506203041 50 355 2.6 7.0 0.00 0.00 0.00 78 1011.8
20260506201546 50 355 1.7 7.8 0.00 0.00 0.00 78 1011.7
20260506200040 51 355 3.5 8.7 0.00 0.00 0.00 76 1011.6
20260506194536 51 355 1.7 9.6 0.00 0.00 0.00 73 1011.6
20260506193042 51 355 2.6 9.6 0.00 0.00 0.00 70 1011.5
20260506191539 51 355 1.7 4.3 0.00 0.00 0.00 69 1011.3
20260506190041 52 355 1.7 5.2 0.00 0.00 0.00 68 1011.0
20260506184545 52 355 1.7 5.2 0.00 0.00 0.00 68 1010.8
20260506183038 53 0 2.6 7.0 0.00 0.00 0.00 66 1010.7
20260506181538 53 355 1.7 7.0 0.00 0.00 0.00 66 1010.4
20260506180038 53 355 2.6 5.2 0.00 0.00 0.00 68 1010.4
20260506174537 53 355 0.9 4.3 0.00 0.00 0.00 70 1010.3
20260506173055 54 355 0.9 4.3 0.00 0.00 0.00 70 1010.2
20260506171537 54 355 0.9 3.5 0.00 0.00 0.00 70 1010.2
20260506170042 54 355 1.7 5.2 0.00 0.00 0.00 69 1010.0
20260506164544 54 355 0.0 5.2 0.00 0.00 0.00 68 1009.9
20260506163040 55 355 1.7 5.2 0.00 0.00 0.00 66 1009.9
20260506161538 55 355 1.7 7.8 0.00 0.00 0.00 67 1009.9
20260506160038 56 355 1.7 7.8 0.00 0.00 0.00 64 1010.0
20260506154537 56 355 2.6 7.8 0.00 0.00 0.00 63 1010.0
20260506153045 57 355 2.6 7.8 0.00 0.00 0.00 62 1010.0
20260506151539 57 355 2.6 7.0 0.00 0.00 0.00 62 1010.0
20260506150042 57 42 2.6 8.7 0.00 0.00 0.00 61 1009.9
20260506144542 57 355 0.9 9.6 0.00 0.00 0.00 61 1009.9
20260506143040 57 129 1.7 7.8 0.00 0.00 0.00 59 1010.0
20260506141538 57 33 1.7 7.8 0.00 0.00 0.00 59 1010.1